Location: Kergonan
(48.2337°N, 4.5518°W)
Time: 12:19:01
(UTC+00:00)

Meteor 1-22 Rocket - Pass Details

Date: 18 January 2020
Orbit: 788 x 940 km, 81.2° (Epoch: 20 February)

Event Time Altitude Azimuth Distance (km) Brightness Sun altitude
Exits shadow 05:32:56 25° 209° (SSW) 1,765 5.6 -24.4°
Maximum altitude 05:36:30 65° 284° (WNW) 1,025 4.3 -23.8°
Drops below altitude 10° 05:42:36 10° 7° (N) 2,667 6.8 -22.7°
Sets 05:45:09 0° 10° (N) 3,616 7.5 -22.3°
